Theta_e
339 338 341 342 343 342 342 340 342 343 343 342 339 336 335 334 335 334 336 334 332 333 331 332 333 333 330 330 333 332 335 339 341 341 341 341 341 340 342 342 342 341 342 337 336 337 335 334 333 333 331 330 330 329 330 329 329 328 330 333 335 336 334 333 332 332 330 329 328 327 327 326 326 326 326 326 326 325 325 325 325 325 324 324 324
342 340 338 339 339 338 341 344 345 343 344 342 341 339 336 334 334 334 332 332 330 331 330 330 330 331 330 329 330 332 335 335 338 339 339 340 341 340 341 342 341 341 341 341 338 337 336 335 334 333 332 332 331 331 330 329 329 329 329 329 334 334 335 333 333 332 331 329 328 327 326 326 326 325 325 325 325 325 325 324 324 324 324 323 323
344 342 342 341 341 340 340 339 342 343 345 344 343 339 337 335 335 333 333 331 330 329 329 330 330 328 329 328 329 331 333 336 335 336 337 337 339 341 339 342 341 340 341 341 341 341 337 336 335 333 333 332 333 331 331 330 329 329 329 328 331 332 334 334 333 331 330 329 327 326 326 327 326 326 326 325 325 324 323 323 323 323 323 323 323
344 342 342 341 339 337 339 341 341 342 343 342 342 340 337 336 336 335 336 335 333 329 331 328 329 328 327 328 328 330 331 334 333 335 336 337 337 340 341 338 340 339 341 340 341 340 339 337 337 335 334 333 333 332 331 330 330 330 330 330 330 331 332 335 333 331 330 329 329 327 326 326 325 324 325 325 325 324 324 323 322 322 322 323 323
342 342 341 340 340 339 339 340 341 342 343 344 344 341 338 336 336 333 334 334 332 331 330 330 330 329 329 327 329 328 330 332 334 335 335 335 335 335 342 339 338 339 338 341 339 341 340 339 337 337 335 335 334 333 333 330 331 330 330 330 331 331 331 334 334 332 332 330 329 328 327 326 326 325 324 325 324 324 324 323 323 323 322 322 322
342 342 342 341 340 338 336 338 342 342 342 344 343 342 338 335 334 331 330 329 331 330 327 328 327 328 330 330 329 330 332 330 332 333 335 335 334 335 334 340 340 338 338 341 340 339 339 340 338 337 336 335 334 334 333 332 331 332 330 330 330 330 332 333 334 333 332 331 330 329 328 327 325 324 324 324 325 324 323 323 323 322 322 322 321
343 342 341 340 336 339 338 340 341 342 341 342 341 341 337 336 338 330 330 326 328 327 323 325 326 326 330 332 330 327 332 331 332 333 332 335 336 335 336 334 336 341 339 337 340 339 338 339 340 338 337 336 336 335 334 333 332 331 330 330 330 331 331 332 333 334 333 332 330 329 328 326 326 325 324 324 324 324 323 323 323 322 321 321 321
342 342 340 338 339 338 338 338 340 340 341 340 341 340 338 335 335 332 330 327 328 327 327 325 327 330 331 333 333 333 331 330 330 329 331 333 333 334 335 335 337 336 341 341 339 338 337 338 339 340 340 337 336 336 335 334 333 333 332 332 331 331 331 331 333 335 333 332 331 330 329 328 327 326 324 323 324 324 323 323 322 322 321 321 321
342 342 341 337 338 337 342 337 336 335 338 340 339 339 337 334 335 334 335 330 328 327 328 327 327 329 331 334 334 335 333 332 331 331 330 331 332 332 334 334 335 337 338 337 342 341 338 337 338 337 338 339 338 336 337 336 335 334 334 333 332 332 331 331 333 333 335 334 332 331 330 328 327 326 324 324 323 323 323 322 323 322 321 321 320
339 340 340 340 338 338 338 337 337 338 335 335 336 337 336 335 333 336 334 335 333 329 329 328 327 327 328 328 332 334 334 333 332 332 331 330 332 332 333 334 335 335 336 337 337 340 340 337 337 336 337 336 338 338 337 337 337 336 335 334 334 333 333 332 332 333 334 334 333 332 330 329 327 327 326 324 324 323 323 323 322 322 322 321 320
336 336 337 335 336 338 336 335 333 335 334 334 333 335 335 335 334 333 332 334 333 333 331 332 330 329 327 327 328 330 335 337 334 331 331 331 330 331 331 333 335 335 336 336 336 338 342 340 337 338 338 335 337 338 338 338 337 337 337 336 335 335 334 333 332 332 333 335 335 333 331 330 328 327 326 325 324 324 323 323 323 323 322 321 320
333 334 333 333 332 333 335 335 336 331 333 331 331 333 333 333 332 331 329 331 332 335 336 335 336 335 330 334 333 334 331 331 333 331 331 331 331 332 331 330 333 335 335 336 337 337 338 341 340 338 337 337 335 336 337 337 337 338 338 337 337 336 335 335 334 333 332 332 335 334 333 330 328 327 327 326 325 325 325 323 323 323 321 321 320
331 331 332 329 330 331 333 333 333 334 331 330 333 334 333 332 332 333 330 328 331 333 335 337 333 330 330 330 332 335 334 334 331 333 330 330 331 330 332 332 332 334 335 336 335 336 336 338 339 339 339 340 337 334 334 334 335 336 339 338 338 337 337 336 336 335 334 333 333 335 333 331 329 328 328 327 326 326 325 324 322 322 321 320 319
329 332 332 330 329 327 329 332 332 332 334 332 334 333 330 330 331 333 333 329 329 331 332 330 329 327 325 325 328 335 335 332 330 330 332 332 330 331 333 331 330 332 335 334 334 333 334 336 338 337 336 337 340 339 337 337 336 336 338 339 340 339 338 338 337 335 334 334 333 335 334 332 330 329 328 327 327 326 325 324 323 323 322 321 320
329 329 328 329 329 328 329 330 331 331 332 334 333 330 329 330 331 330 328 331 330 334 335 333 327 330 331 326 323 322 330 332 333 332 334 334 334 330 329 329 330 330 332 332 332 333 332 333 334 336 338 337 337 340 339 336 337 335 336 338 339 340 340 338 338 337 336 336 334 334 335 333 331 330 329 328 327 326 325 324 323 323 322 322 321
328 327 327 327 327 326 327 327 328 329 329 329 331 330 333 330 330 330 329 326 327 329 334 335 331 327 319 321 324 322 317 322 324 329 333 333 331 330 331 330 328 330 330 329 329 333 334 332 332 335 337 338 337 336 338 339 336 333 332 335 336 337 340 340 340 338 338 336 335 334 336 334 333 331 330 329 328 327 326 325 323 323 322 322 321
329 328 325 326 326 327 326 326 327 327 328 326 326 327 328 330 331 329 328 328 326 327 328 331 328 331 326 323 320 319 319 323 326 329 331 329 328 330 332 330 330 333 331 329 330 333 333 332 336 336 340 338 338 337 337 337 339 340 337 334 334 335 338 340 341 341 339 338 337 336 337 335 333 332 331 329 328 327 326 325 324 322 322 322 322
328 327 326 325 326 325 326 326 325 326 326 325 326 325 324 326 326 328 331 333 330 326 325 330 330 328 329 329 324 321 322 326 324 319 331 331 331 332 333 332 332 332 332 334 333 333 333 333 338 338 338 338 338 339 338 337 338 338 341 340 331 331 329 333 340 341 340 339 338 337 338 338 334 332 331 330 329 328 327 326 325 323 323 323 322
328 327 327 327 326 326 326 326 325 325 323 325 324 324 324 325 326 325 325 327 328 324 322 325 327 328 329 329 327 327 327 326 321 324 320 328 330 330 332 331 333 332 331 333 332 334 334 331 333 335 337 339 339 338 337 335 333 334 334 333 330 328 326 325 329 338 340 340 339 338 338 338 336 333 332 331 330 328 328 327 326 325 323 322 323
326 326 326 327 327 326 326 325 323 322 321 321 322 322 325 325 325 327 325 325 325 323 323 324 322 323 326 325 325 324 326 327 326 322 319 318 322 330 332 332 332 333 333 332 332 333 335 335 333 334 335 335 337 338 337 336 335 336 337 328 328 328 325 324 322 322 330 339 340 339 338 338 337 334 333 331 330 329 328 328 327 326 325 323 323
326 324 325 324 324 323 322 321 321 320 318 317 319 320 321 323 323 323 324 324 324 323 323 321 321 319 322 324 323 324 326 326 326 324 319 316 319 322 324 329 331 332 333 333 333 333 333 334 334 333 334 334 336 336 337 338 342 338 334 325 327 326 325 323 319 320 319 328 337 340 338 338 338 337 334 333 331 330 329 328 328 327 326 325 323
324 323 323 322 321 321 320 320 320 318 317 317 320 321 321 322 322 321 322 322 323 324 322 321 322 322 321 320 319 319 320 322 323 321 320 320 315 318 321 322 321 327 331 332 332 333 334 333 332 331 332 334 335 334 336 337 341 337 333 324 325 325 324 320 316 315 317 322 332 338 340 338 337 337 336 334 333 332 330 329 329 329 328 326 325
321 322 322 322 323 322 321 319 321 321 321 319 320 320 321 321 321 321 321 321 320 320 320 320 321 320 319 320 318 318 318 317 317 318 317 317 316 317 320 323 321 322 329 330 329 331 333 331 331 331 332 334 333 333 335 337 334 332 325 324 324 324 321 319 317 315 315 322 328 334 338 340 338 337 337 336 334 334 332 331 331 330 329 328 327
321 321 322 323 323 322 322 322 321 321 320 321 322 321 321 321 321 321 320 320 321 320 320 318 318 316 316 316 317 316 318 317 318 318 316 316 316 315 313 314 314 316 321 328 328 326 327 329 330 330 330 330 333 334 334 334 334 327 328 323 322 320 318 319 318 317 314 320 324 329 335 338 339 338 337 338 337 336 335 334 333 331 330 329 329
320 320 322 323 324 322 323 322 321 320 321 320 320 321 322 320 321 321 321 320 319 320 318 319 318 318 315 315 316 315 317 318 316 316 316 316 315 310 311 313 312 313 315 318 321 323 323 322 322 324 329 332 334 333 334 335 335 327 324 326 322 319 317 316 315 314 312 311 317 323 327 333 338 338 338 337 337 336 336 333 328 323 323 326 328
321 321 322 323 323 323 324 323 322 321 321 321 322 321 322 319 320 320 320 320 320 320 319 319 319 319 319 316 316 315 314 315 316 317 315 313 310 311 312 312 312 308 311 312 313 312 316 320 321 321 321 324 331 332 334 332 334 321 322 329 329 319 317 314 313 313 311 310 309 311 315 321 325 330 332 335 334 327 325 323 319 318 317 318 323
322 323 324 323 324 324 324 323 321 322 321 321 321 321 321 319 319 320 320 320 320 320 319 319 318 316 318 317 316 315 314 314 315 315 315 316 312 311 309 306 307 310 310 312 313 313 313 316 319 320 323 330 330 334 332 331 331 322 320 336 334 321 316 315 314 312 310 310 310 310 310 313 315 317 318 318 317 319 324 323 320 318 317 316 317
324 324 325 323 324 323 324 323 322 321 321 321 320 320 320 320 319 320 318 318 318 318 319 318 317 318 317 317 317 314 315 314 315 315 314 315 315 315 313 310 307 305 309 308 309 310 315 314 316 319 319 321 323 329 328 326 330 319 322 332 334 329 315 314 312 311 310 309 308 308 308 310 311 311 313 316 319 320 320 321 321 317 316 316 315
323 324 325 324 324 324 323 323 323 321 321 320 320 320 319 321 320 319 319 320 320 319 319 319 319 319 317 316 316 316 313 317 316 314 315 316 315 314 314 312 310 306 304 305 308 310 314 315 312 316 317 318 321 325 327 327 324 325 327 327 329 331 321 314 311 311 311 307 305 306 306 308 310 310 311 314 316 318 318 317 317 317 316 318 316
323 325 326 324 324 324 323 324 324 322 321 320 319 319 319 319 319 319 319 320 319 318 319 318 318 318 316 317 316 315 315 316 314 315 315 315 314 315 313 314 314 310 308 305 306 310 310 313 314 313 318 319 321 325 325 325 319 324 324 324 326 330 312 313 312 311 311 309 307 307 308 307 308 309 310 313 315 315 315 315 314 314 317 319 316
323 325 325 323 324 324 323 323 323 322 321 320 320 320 318 318 317 318 319 318 318 318 318 318 317 318 316 316 316 315 315 315 315 316 316 315 314 312 312 314 313 313 311 310 305 310 313 311 314 315 314 315 315 317 317 318 318 319 321 322 321 318 311 320 312 312 312 312 310 309 311 311 308 308 309 311 313 314 313 314 316 316 316 316 314
323 325 324 322 323 324 322 322 323 322 320 320 319 319 319 319 317 317 317 317 317 316 317 317 315 316 315 315 313 313 314 312 313 314 313 314 315 313 312 312 311 313 312 310 308 307 312 312 312 313 314 316 316 315 317 317 317 316 321 321 322 316 320 321 314 311 312 311 311 310 309 309 309 308 307 307 310 311 311 313 314 314 314 314 314
323 325 324 322 322 323 322 322 322 322 321 320 320 319 318 318 318 318 318 315 315 315 316 316 314 314 314 313 312 314 314 312 313 312 312 312 313 313 313 312 311 312 311 310 308 308 311 315 314 312 314 316 314 316 315 316 317 318 316 320 320 322 321 321 321 312 308 309 309 309 309 308 308 308 305 304 306 307 308 309 310 310 311 312 311
325 323 323 323 323 323 322 322 322 322 321 319 319 319 317 317 318 319 319 316 315 315 316 314 315 314 314 312 311 312 312 311 311 309 309 310 310 309 309 310 309 311 312 309 307 307 307 311 310 312 312 314 311 313 314 314 315 316 315 316 316 317 317 318 318 319 309 310 309 308 308 307 306 305 305 304 304 305 306 306 307 307 308 309 308
327 325 323 323 323 323 323 322 322 322 321 320 320 319 318 317 316 317 317 316 315 315 315 314 313 314 313 313 312 313 313 312 312 312 312 311 310 309 310 310 309 310 310 310 309 307 307 307 310 309 311 312 313 312 313 314 314 314 313 313 313 313 315 316 316 317 309 306 308 308 307 307 306 305 305 305 304 304 304 304 305 305 305 305 306
326 327 325 323 323 323 322 322 322 322 321 321 320 319 318 317 317 317 316 316 315 315 314 313 312 313 312 312 312 312 312 311 311 310 310 310 310 309 309 309 310 309 312 313 313 310 309 307 310 309 310 310 311 312 312 312 312 312 312 313 313 313 313 313 315 316 311 306 307 307 307 307 306 305 305 305 306 305 304 305 304 304 304 304 304
326 326 326 324 323 323 323 322 322 322 322 321 319 319 319 318 317 317 316 315 315 315 314 314 314 313 312 311 311 311 310 309 309 310 310 310 309 308 308 308 307 308 309 309 310 310 309 308 309 310 311 310 311 312 312 311 311 311 312 312 312 312 314 315 315 313 307 302 307 307 307 307 307 306 306 306 305 305 304 304 304 304 304 304 304
325 325 324 324 322 322 323 322 323 322 322 321 320 319 318 318 318 317 317 316 315 314 314 313 312 311 311 311 311 310 309 309 308 309 309 308 308 308 308 307 307 308 308 308 308 307 306 306 306 307 310 309 310 311 312 312 310 310 310 311 312 313 312 312 314 314 317 317 324 322 311 309 307 306 307 307 306 305 305 304 304 304 303 304 304
325 325 324 324 324 324 324 323 323 323 323 321 320 319 319 318 317 316 316 316 315 315 314 313 312 312 312 311 310 309 309 308 308 307 308 308 308 308 308 308 308 309 308 308 308 307 307 306 306 307 306 308 309 308 310 312 311 310 309 309 309 311 313 313 314 318 320 321 316 311 313 314 312 314 310 306 306 305 305 304 303 303 303 302 302
326 325 324 324 323 323 323 323 323 324 323 321 320 319 319 318 318 317 316 315 314 314 314 313 312 312 311 309 309 308 307 308 308 308 306 304 304 304 304 305 306 306 306 306 306 306 306 306 305 305 306 306 307 308 310 310 308 308 310 310 309 310 312 314 314 312 313 312 312 312 310 312 313 311 308 307 306 306 305 305 305 305 304 303 302
326 325 325 324 324 323 323 324 323 323 322 321 319 320 319 318 318 317 316 315 314 313 312 312 311 310 309 308 308 308 308 308 298 300 299 299 298 297 299 301 301 302 302 303 303 304 305 305 304 305 304 305 306 306 306 306 306 306 309 311 309 309 309 308 310 312 311 311 313 313 314 317 317 318 321 321 320 311 310 307 310 306 304 302 301
323 324 324 324 323 323 323 323 322 323 321 321 316 308 309 317 317 316 316 315 313 313 312 311 309 309 308 308 308 306 304 302 299 296 294 295 297 299 299 300 300 300 301 302 302 302 303 302 302 303 303 303 303 305 305 307 308 309 308 308 306 307 309 309 310 311 312 311 310 310 312 315 315 315 316 316 321 320 322 318 318 317 309 302 301
323 323 323 323 323 323 323 322 322 321 322 321 305 300 302 305 315 316 315 314 313 312 310 308 307 307 307 307 308 308 304 302 302 295 295 294 293 294 294 296 298 300 299 298 300 301 300 301 301 302 301 302 303 305 306 306 308 307 307 307 306 306 305 304 303 309 313 312 310 310 312 316 317 314 316 318 320 323 325 325 311 309 308 304 302
321 322 322 322 321 321 322 321 322 321 319 307 297 298 299 299 305 315 314 312 311 309 307 306 306 306 306 306 306 307 306 305 305 306 300 295 293 293 292 293 293 292 294 297 297 297 298 298 299 300 301 302 303 305 305 306 306 306 307 307 307 306 305 304 304 304 310 313 309 308 307 311 313 313 314 317 319 321 322 315 309 308 307 304 302
321 320 320 320 321 321 321 321 320 319 319 297 297 296 296 297 299 307 311 310 308 307 306 306 305 305 305 304 304 305 304 308 303 303 304 305 297 293 294 294 293 293 291 291 292 299 299 297 297 297 298 299 300 302 304 305 307 305 306 304 305 304 304 303 303 304 308 311 309 307 306 310 312 312 312 314 316 319 320 309 304 306 305 303 302
318 318 319 320 320 320 321 320 320 319 319 297 295 295 295 294 295 302 310 308 307 306 305 305 305 305 305 304 303 303 303 304 304 304 304 304 305 305 304 303 303 300 293 291 291 291 294 298 299 298 300 301 299 301 303 304 302 301 302 302 304 303 303 302 305 306 308 310 306 305 304 306 309 308 307 310 313 316 318 314 304 305 303 303 302
316 316 317 317 318 319 319 319 319 320 312 294 294 294 293 294 294 299 308 306 305 305 305 305 305 305 304 304 303 302 303 303 304 303 304 303 303 302 301 301 302 302 303 304 301 300 299 299 300 300 301 302 302 302 303 303 302 302 302 302 302 302 302 304 304 305 305 306 306 304 300 304 308 306 307 309 311 312 314 309 305 305 304 303 301
316 316 316 317 317 318 319 319 319 315 302 292 292 293 293 292 293 305 304 304 303 303 304 305 305 305 304 304 303 302 303 303 296 290 295 301 301 300 299 299 300 301 302 300 298 299 302 303 303 302 303 303 297 298 298 298 298 300 300 300 301 301 300 299 298 301 300 305 306 303 301 302 306 304 305 308 309 309 312 315 304 304 302 301 300
314 314 315 316 316 317 317 317 316 304 300 293 291 291 291 291 296 303 303 303 303 303 304 305 304 304 304 303 303 302 302 303 294 290 289 293 299 298 298 298 298 299 299 301 297 294 294 294 293 292 292 292 292 292 292 292 295 297 297 295 296 298 297 295 297 298 298 302 304 305 303 301 304 305 305 307 308 308 310 312 317 300 300 301 300
313 314 314 314 315 316 315 316 309 303 299 294 290 290 290 291 295 302 303 303 303 303 303 303 303 302 303 304 303 301 300 301 290 289 288 295 298 297 297 296 296 296 297 299 300 301 295 293 292 292 293 293 293 293 293 292 292 293 296 293 296 297 295 296 294 296 298 300 302 306 302 301 304 305 304 306 307 309 310 312 317 307 298 298 296
314 314 313 313 314 315 314 309 300 300 298 293 290 289 290 289 296 301 300 300 300 300 300 299 301 301 301 302 299 299 300 299 289 290 289 293 296 296 296 295 294 294 295 297 297 297 298 299 299 300 298 296 297 298 298 294 293 295 297 296 296 296 294 294 295 295 294 297 301 305 300 301 303 305 305 303 302 307 311 312 315 313 313 312 308
Wind_Speed
6 8 6 4 5 2 4 6 4 3 4 3 1 2 5 6 4 4 4 5 5 5 6 7 7 5 6 6 4 6 6 5 4 4 4 5 7 10 14 12 9 6 4 6 7 8 6 7 6 7 7 7 6 5 5 6 5 4 4 5 4 7 7 7 7 7 7 7 6 6 6 6 7 6 7 7 8 8 8 9 9 10 10 10 10
1 4 3 1 3 7 7 4 5 4 2 2 1 2 4 5 4 5 4 5 5 6 6 7 8 7 6 7 6 6 5 5 5 5 5 4 5 9 13 12 10 8 6 3 7 8 8 7 6 6 7 7 7 7 6 6 6 6 5 4 4 3 5 8 7 7 7 7 7 6 6 6 6 6 7 6 7 7 7 8 9 9 9 9 9
3 4 4 4 3 3 2 4 5 4 2 3 4 5 5 5 5 4 5 5 5 5 4 6 7 9 7 7 7 6 5 5 6 6 6 6 6 8 10 12 12 10 8 6 3 3 9 7 7 5 7 7 7 7 7 7 6 7 6 5 5 2 4 7 8 8 7 7 7 6 6 6 6 6 6 6 6 7 7 7 8 8 8 8 9
3 4 4 3 2 6 5 3 4 3 3 4 5 5 5 4 4 5 2 1 5 5 3 5 7 8 9 9 7 5 5 5 6 6 6 6 5 8 8 9 13 11 10 8 7 4 6 9 8 8 8 8 8 7 8 8 7 7 7 7 5 4 3 8 8 8 8 7 7 7 6 6 6 6 6 6 6 6 6 6 7 7 7 8 8
4 5 5 4 3 4 6 5 4 4 4 5 5 3 5 4 4 4 4 3 3 3 4 5 7 8 9 8 7 8 7 7 6 6 6 5 5 5 9 9 10 12 12 9 9 8 6 6 10 9 9 8 8 7 8 8 9 8 8 7 6 5 5 7 9 8 8 8 7 8 7 7 6 6 6 6 6 5 6 6 6 7 7 7 7
4 5 5 6 5 4 6 6 4 4 4 4 4 4 5 7 6 6 4 4 4 1 4 6 7 7 6 8 6 7 7 7 7 7 5 5 5 5 6 9 9 9 9 12 11 9 9 7 9 11 10 9 7 8 8 9 9 8 8 7 7 6 6 6 8 9 8 8 8 8 8 7 7 7 7 7 6 6 5 6 6 6 7 7 7
3 3 4 2 6 4 6 4 4 4 4 4 5 4 5 5 6 6 6 5 7 6 7 7 7 7 6 5 7 6 6 6 7 7 7 7 5 5 4 4 7 9 9 9 11 12 10 9 9 11 10 9 9 8 8 9 9 9 9 8 8 8 7 6 6 9 9 9 8 8 8 8 8 8 8 7 7 6 6 6 6 6 6 6 7
4 4 2 5 6 4 3 5 5 3 2 3 3 4 3 4 7 7 5 8 7 7 7 8 7 5 4 5 5 6 5 5 6 7 7 7 8 7 5 5 4 6 9 7 8 11 13 11 10 10 11 10 10 10 9 10 9 10 9 10 9 9 8 8 7 8 9 9 9 8 9 8 9 9 9 8 8 8 7 7 7 7 6 6 6
3 4 4 7 6 6 3 3 4 5 3 1 3 3 3 4 4 6 4 6 8 7 7 6 6 6 5 6 6 5 6 6 6 6 7 7 7 7 6 7 6 5 5 7 9 8 14 14 13 12 11 11 11 12 11 10 10 10 10 10 10 10 9 9 9 7 11 10 9 9 9 8 10 9 10 10 9 9 9 8 8 7 7 6 6
2 2 3 4 5 3 1 3 2 1 2 2 4 5 4 4 5 5 5 5 5 6 7 7 6 4 1 7 7 6 6 6 6 7 7 7 6 7 7 7 6 7 6 6 7 9 10 14 16 14 12 11 11 13 13 13 12 11 10 10 10 11 9 10 10 9 10 11 10 10 10 10 10 10 10 10 10 10 10 9 8 8 8 7 7
1 1 3 4 4 3 2 4 4 2 4 3 4 4 5 5 5 5 5 3 5 10 5 5 6 5 3 5 7 7 4 2 6 6 6 7 7 7 8 7 7 7 7 6 6 6 9 9 10 10 11 14 13 13 15 14 14 14 13 11 10 12 12 11 11 11 11 11 12 11 11 10 11 11 11 10 10 10 11 10 10 9 9 8 7
2 3 2 4 3 2 2 3 5 3 2 1 5 4 5 6 7 5 5 6 9 8 1 3 2 4 0 6 5 8 7 3 5 7 6 6 6 6 7 7 7 6 7 7 7 7 7 10 9 10 10 15 17 14 15 14 12 13 15 13 13 12 13 13 12 12 13 12 12 13 10 11 12 12 12 12 11 11 11 11 11 10 10 9 9
3 1 2 3 4 4 3 2 2 4 7 6 6 6 3 4 5 4 6 5 6 7 4 2 3 2 2 5 5 5 7 8 6 6 7 6 6 7 6 6 6 6 6 6 7 7 7 7 8 8 9 9 14 18 17 15 14 13 14 14 15 14 15 14 14 12 13 14 13 14 12 13 14 13 13 13 12 12 11 11 11 11 10 10 10
1 3 3 3 3 2 3 3 3 1 2 6 6 4 1 4 5 3 4 6 4 5 4 3 5 4 2 3 5 1 2 5 8 6 5 7 7 5 5 6 7 6 5 6 7 8 8 7 7 8 8 7 10 11 12 13 13 16 15 15 16 15 15 18 16 15 12 15 14 14 13 14 14 14 14 13 13 12 11 11 11 11 10 10 10
0 0 2 1 0 3 2 1 2 2 4 3 4 3 5 6 3 3 2 3 4 3 4 5 3 2 1 1 1 2 0 3 4 6 6 3 6 7 7 7 8 8 6 6 7 7 8 8 8 8 6 7 6 10 10 12 13 17 19 17 17 15 16 15 16 16 16 14 16 15 15 16 16 16 15 14 13 12 12 11 11 11 11 10 10
0 1 1 3 3 1 2 3 2 4 3 2 3 4 2 4 1 5 5 4 4 3 3 3 1 1 3 5 2 2 2 3 3 2 1 3 1 4 10 10 7 9 7 7 7 6 6 6 7 6 6 6 6 6 9 9 14 17 19 19 18 16 17 17 16 14 16 15 15 16 16 17 17 17 16 15 14 13 13 12 12 12 11 11 11
3 3 3 2 2 3 3 2 4 3 3 2 1 3 1 4 2 5 2 2 3 2 0 1 3 3 3 1 2 2 3 1 2 1 1 1 2 1 4 4 6 8 8 6 5 4 5 6 5 5 4 5 6 7 7 7 10 12 15 19 20 19 18 18 18 17 15 17 17 17 17 17 18 17 16 15 15 14 14 13 13 13 12 12 12
2 3 4 4 3 0 2 3 2 2 3 3 3 2 2 3 1 3 3 2 1 1 1 3 3 3 2 2 3 1 0 1 1 1 2 1 2 2 2 0 2 5 5 6 8 8 8 7 4 5 5 6 6 7 7 7 8 8 9 11 18 18 19 17 19 19 18 16 17 18 18 19 18 17 16 16 16 15 15 14 14 14 14 13 13
3 3 3 3 4 4 3 4 4 3 2 3 4 4 4 5 5 4 2 2 2 3 3 3 5 4 2 3 3 1 1 1 1 2 1 1 1 1 2 5 5 2 5 8 7 7 5 6 9 8 6 5 7 7 7 8 9 8 7 11 19 20 19 18 17 18 19 18 17 18 19 19 18 17 16 16 17 17 16 15 15 15 15 14 14
2 3 3 3 3 3 3 3 2 3 2 4 4 4 4 4 3 3 3 4 4 1 2 2 2 3 2 3 4 2 2 1 2 3 3 3 2 1 1 5 5 5 3 2 0 1 3 5 5 4 6 8 6 4 5 7 8 9 7 12 16 18 18 18 18 16 16 17 19 18 18 18 19 18 17 17 17 17 18 17 17 17 16 15 15
3 3 3 5 3 4 3 4 4 4 3 4 4 5 5 4 4 4 4 4 4 3 3 3 2 3 2 0 1 3 2 1 3 1 2 4 2 1 3 1 1 4 3 3 2 2 3 4 5 5 5 7 6 5 4 2 4 7 9 3 13 15 16 17 16 16 16 15 15 18 19 19 18 19 19 18 18 19 19 19 18 18 18 17 17
3 3 4 4 4 3 3 3 3 5 5 5 4 4 4 4 4 4 4 3 3 4 4 4 3 4 4 3 3 0 3 6 5 4 4 8 6 3 3 2 2 2 1 2 3 3 4 5 6 7 7 6 6 6 6 7 4 3 4 5 10 12 13 14 14 14 14 15 12 14 18 19 19 18 20 19 21 21 20 20 20 19 19 19 18
3 4 3 4 3 3 3 3 3 3 3 3 4 4 3 4 3 4 5 4 4 3 3 3 3 3 3 3 3 2 3 4 2 3 3 4 4 5 6 7 6 4 5 6 5 5 6 5 6 7 7 7 7 7 7 7 6 5 5 2 4 4 7 10 12 13 13 13 13 16 17 20 19 18 18 21 22 21 21 22 21 21 20 19 20
3 4 3 4 3 3 2 2 3 2 3 3 2 3 3 3 4 3 4 4 3 3 3 3 2 2 2 3 3 3 2 2 3 2 3 4 4 5 4 5 4 4 3 6 7 7 7 8 9 9 8 8 7 7 7 8 7 8 9 8 6 7 8 9 10 11 12 12 13 15 17 19 20 20 19 19 22 22 22 22 21 21 21 20 20
4 4 4 4 3 3 2 2 2 2 2 3 3 4 3 3 4 4 4 5 5 5 4 5 5 5 3 2 2 2 2 2 2 2 2 2 3 4 5 5 5 4 5 4 6 8 8 8 9 9 9 7 7 7 6 6 2 5 5 7 7 9 9 9 10 11 12 13 13 13 13 15 19 22 22 20 20 22 22 21 20 18 18 16 18
5 5 5 5 3 3 2 3 2 2 2 2 2 2 1 2 3 4 3 4 4 4 4 4 4 4 3 3 4 3 4 2 2 1 1 3 3 4 5 5 5 6 5 5 5 5 5 8 8 7 6 7 8 9 5 6 4 5 4 3 3 8 9 10 11 11 12 12 12 12 12 12 12 14 15 17 17 16 18 16 16 18 18 16 17
6 5 6 5 4 4 3 3 3 3 2 2 2 1 1 1 3 3 3 3 3 4 4 4 3 4 4 3 1 2 4 4 3 3 2 1 3 4 5 5 5 5 5 5 4 5 4 4 4 5 6 5 3 1 2 1 6 10 6 4 5 9 11 11 10 11 11 11 12 13 13 12 12 12 13 13 12 8 14 18 18 19 18 17 17
6 6 7 6 5 5 5 4 5 4 4 3 2 2 1 1 3 2 2 2 2 2 2 3 3 3 3 3 2 4 3 3 4 3 4 4 2 1 1 3 5 5 5 5 4 4 2 3 2 4 5 4 4 3 4 5 6 4 6 4 6 4 10 10 10 10 10 11 13 13 13 12 13 13 12 12 13 13 9 14 19 19 19 19 18
6 7 7 7 6 6 5 5 5 5 4 4 3 2 3 2 2 3 3 3 2 2 1 2 2 0 2 2 2 1 3 2 2 4 3 3 4 3 2 2 3 4 5 5 5 5 4 6 5 5 6 6 5 4 5 6 5 3 3 5 5 7 4 7 7 9 9 10 11 12 13 14 13 12 12 12 13 13 13 11 14 17 19 19 19
6 7 8 8 7 8 6 6 6 5 5 5 4 4 3 3 3 3 3 3 2 2 2 1 1 1 1 2 3 1 3 2 3 2 3 3 3 4 4 3 2 3 4 5 6 6 7 7 5 6 5 7 6 4 3 6 6 5 7 8 7 4 8 6 8 9 10 11 12 12 13 15 14 13 13 13 13 14 14 14 13 14 16 19 19
8 8 9 9 8 8 7 7 7 7 6 5 5 4 4 3 3 3 3 3 3 3 2 2 1 1 1 1 1 1 1 1 2 1 2 2 3 4 4 4 4 4 4 5 7 5 4 6 7 8 9 9 8 8 8 8 6 5 8 8 9 4 4 7 11 12 12 14 14 14 13 14 15 15 14 14 14 14 14 14 14 14 17 18 19
8 10 10 10 10 10 9 8 8 8 8 7 7 6 5 4 4 4 4 4 4 3 3 3 2 2 2 2 1 2 2 3 2 2 2 2 2 3 4 4 4 4 4 6 7 8 5 6 7 8 9 8 8 9 9 8 6 3 7 7 8 9 10 10 14 15 17 17 15 14 14 14 14 14 15 15 14 14 14 15 16 15 16 18 21
8 9 10 11 11 11 11 10 10 9 9 9 8 7 6 6 5 5 5 5 5 4 4 4 2 2 3 1 2 3 1 2 2 3 3 3 4 4 4 4 4 4 5 6 7 8 6 5 5 6 7 8 9 8 9 8 7 7 8 8 9 8 9 9 10 12 14 16 17 16 16 14 12 12 12 12 13 13 14 15 15 16 16 17 19
9 10 11 10 10 12 11 11 11 11 11 10 9 8 8 7 7 5 5 6 6 5 4 4 4 3 2 3 2 0 1 3 3 5 4 4 4 5 4 4 5 4 4 6 7 8 9 7 7 7 7 7 9 8 8 8 8 8 10 9 8 9 9 9 9 9 12 17 17 15 13 12 11 11 12 12 12 13 13 15 15 16 17 17 18
9 9 10 11 11 12 12 11 12 11 11 11 9 9 8 8 8 7 7 7 7 6 6 5 6 5 4 4 4 2 2 3 3 4 4 5 4 5 5 5 6 6 6 6 7 8 9 9 8 9 8 7 7 7 8 8 9 9 10 9 9 9 8 8 9 9 6 11 14 14 15 14 13 13 12 13 13 14 14 14 16 16 17 17 18
9 10 10 11 11 11 12 12 12 11 12 10 10 10 10 10 9 9 9 8 8 7 7 7 6 5 5 4 4 3 3 4 4 4 4 4 4 5 6 6 6 6 6 6 7 7 8 9 8 8 8 8 8 9 9 9 9 9 9 9 9 9 10 9 9 9 4 9 10 11 11 12 12 13 13 14 14 14 14 15 16 16 17 17 18
12 11 11 11 11 12 11 12 12 12 11 11 11 11 10 9 10 9 9 9 9 8 8 7 6 5 5 4 4 3 2 3 4 4 4 4 5 6 6 6 7 6 6 6 7 8 8 10 9 8 9 9 9 8 8 9 9 9 9 9 8 9 9 8 9 10 4 9 11 13 13 14 15 15 15 15 15 15 16 16 16 16 17 18 18
12 12 11 11 11 14 13 13 13 12 11 11 11 11 11 11 11 10 10 10 9 9 8 8 7 6 5 4 3 4 4 3 4 4 4 6 6 6 7 7 8 8 8 9 8 9 10 10 10 10 9 9 9 8 8 9 9 9 9 9 9 8 9 9 9 8 8 5 5 8 11 13 15 16 16 16 17 16 16 15 16 17 18 18 18
11 11 11 11 10 12 13 13 13 13 12 12 12 12 12 12 12 11 10 9 8 7 7 7 7 6 6 5 4 3 4 4 3 4 4 5 5 7 7 7 7 8 8 8 9 9 9 10 10 10 10 9 9 10 8 8 8 8 9 9 9 8 8 8 7 6 5 6 8 10 10 10 11 12 15 16 15 16 16 15 16 17 17 18 18
12 11 11 11 11 11 12 10 13 9 11 13 11 12 12 11 11 10 10 9 8 8 7 7 6 6 5 4 5 4 4 4 3 2 3 5 6 7 7 7 7 8 9 9 9 9 9 9 9 9 9 9 8 9 9 9 9 8 8 8 8 7 6 6 7 8 9 10 11 11 10 11 13 14 14 16 19 18 18 17 18 17 18 18 18
5 8 11 11 11 13 13 12 12 13 12 9 11 12 13 12 10 10 10 9 9 8 8 7 6 6 5 5 5 5 1 6 5 2 2 3 6 8 8 7 8 8 9 9 9 9 9 10 10 9 9 9 9 9 8 8 8 8 7 7 8 9 9 10 10 10 9 9 9 10 10 9 10 9 9 10 11 16 16 19 14 18 18 17 17
10 11 11 12 11 12 13 12 11 8 8 10 10 11 11 11 11 9 8 8 9 8 7 7 6 6 5 5 4 3 4 5 6 8 10 10 9 8 8 8 8 9 9 9 9 9 10 10 10 10 10 10 10 9 9 9 9 9 9 9 10 10 9 10 9 8 9 10 10 10 10 9 10 11 11 12 8 14 11 10 10 11 14 18 17
9 11 9 10 11 12 9 8 9 8 6 8 6 10 8 7 9 8 8 8 8 7 6 6 5 6 5 6 5 7 10 10 11 13 12 12 13 12 12 12 10 9 9 10 10 10 10 11 10 11 11 11 11 10 10 9 9 10 9 9 9 9 10 10 10 7 6 7 9 9 9 8 9 10 11 10 10 8 9 10 15 18 16 17 18
8 9 10 10 11 11 10 12 8 7 9 6 11 11 10 7 5 7 7 7 6 6 6 5 5 5 5 4 4 4 5 6 7 7 11 14 14 14 14 14 14 15 13 11 11 11 11 11 11 11 11 11 10 9 9 9 10 10 10 9 9 9 9 10 9 10 6 6 8 10 11 9 10 11 10 10 9 9 10 9 14 21 18 16 17
9 9 10 10 10 11 11 9 10 9 8 12 13 12 10 10 9 8 7 7 7 6 6 6 5 4 3 4 4 4 5 5 6 9 9 8 14 17 16 16 16 15 15 17 16 13 11 13 13 14 12 12 12 11 10 11 11 11 10 11 10 10 10 11 11 10 8 7 9 9 11 8 8 9 10 10 10 10 11 5 12 16 15 15 15
9 10 10 11 11 11 12 11 11 11 6 12 14 13 12 11 10 7 6 7 6 6 6 6 5 5 5 5 5 6 6 6 6 7 8 8 8 6 8 9 10 14 18 19 19 20 17 13 13 14 12 12 13 12 13 13 13 12 11 12 12 12 12 12 12 12 9 8 10 10 12 10 9 11 12 11 10 10 10 11 13 17 18 17 16
9 9 10 10 11 11 11 11 10 11 5 14 16 15 13 12 9 4 5 6 4 4 4 5 5 5 5 5 6 7 7 7 6 4 5 8 8 8 9 10 11 12 10 9 12 13 12 11 13 14 13 13 14 14 11 9 10 10 9 10 10 11 12 13 13 12 12 11 12 11 14 11 9 11 12 10 10 12 11 15 14 17 18 16 14
9 9 9 9 10 11 11 10 11 5 8 13 14 15 14 11 9 5 5 5 4 4 5 5 6 5 6 6 6 7 6 8 7 9 7 4 8 9 10 11 11 11 11 10 12 11 12 12 13 13 11 11 10 11 11 10 11 11 11 12 11 10 11 12 13 11 12 9 10 11 12 12 9 12 12 10 11 12 11 10 2 12 11 11 11
9 9 9 9 9 9 10 10 5 8 8 9 13 13 12 11 7 5 5 5 5 6 6 5 5 6 6 7 7 6 6 6 8 9 7 1 7 10 11 11 11 11 11 10 11 13 15 16 16 19 21 21 17 14 13 14 12 10 11 13 13 11 13 14 13 12 12 10 10 11 12 13 9 10 12 10 11 12 11 9 4 4 11 10 9
9 10 9 9 8 8 8 8 8 10 9 8 12 12 11 8 1 3 5 5 5 5 4 5 6 6 7 4 5 8 9 7 9 9 9 3 8 9 10 11 12 12 12 10 10 9 11 14 17 18 19 19 19 19 18 15 15 11 10 15 12 12 16 15 15 13 13 11 11 10 12 13 10 10 12 11 12 11 10 10 5 5 6 6 7
9 9 9 9 6 4 1 9 13 12 10 9 9 10 8 5 1 1 2 3 2 3 4 4 4 5 6 6 12 11 10 9 10 9 8 4 8 9 10 11 13 14 12 12 12 13 13 12 11 11 12 15 14 13 13 15 13 12 12 13 11 13 18 17 15 14 14 12 11 11 13 12 11 11 11 10 11 10 9 11 7 8 9 8 7
Wind_Direction
209 218 202 164 216 122 210 190 189 211 205 245 256 218 212 215 197 218 207 223 211 218 205 221 205 200 240 254 229 223 191 202 190 191 188 145 151 152 152 158 162 181 201 193 170 170 182 180 189 179 180 192 197 197 183 184 179 176 187 131 109 141 132 132 126 121 121 117 115 109 102 103 99 96 92 87 82 81 80 82 78 74 72 72 71
273 317 59 151 237 172 217 248 180 178 187 214 211 247 233 234 218 207 216 240 225 199 224 208 228 207 203 234 216 238 191 198 200 203 185 169 150 151 162 155 168 172 178 212 196 173 173 184 200 176 184 185 198 198 192 188 200 179 188 175 111 112 145 137 136 133 127 130 126 124 117 113 112 104 102 100 98 92 89 89 90 84 78 77 80
239 224 203 199 223 337 299 222 241 212 230 204 187 221 225 238 237 213 201 202 266 215 203 252 227 217 197 218 231 201 217 192 205 203 200 178 161 149 167 162 168 173 180 188 236 220 183 189 189 183 186 195 197 199 193 194 196 206 172 189 162 141 165 156 144 136 132 133 132 130 134 127 122 119 109 110 110 103 99 98 98 97 94 88 84
230 246 265 249 190 219 239 222 230 232 225 231 223 227 241 238 236 241 341 62 245 279 192 225 246 240 205 197 219 215 205 210 215 200 211 193 183 163 155 173 173 174 182 180 195 197 201 194 184 197 189 203 198 199 197 202 196 205 211 168 187 175 173 171 150 145 146 145 144 143 142 141 131 130 127 120 119 120 111 105 101 101 100 98 92
208 234 236 242 248 251 235 226 226 217 209 236 244 218 248 220 227 244 227 151 194 229 272 222 236 240 254 199 195 221 204 201 210 218 202 211 195 197 158 168 174 178 185 188 187 190 201 219 186 194 203 201 206 203 199 202 200 200 214 183 180 181 189 174 163 158 153 157 151 152 153 151 147 137 138 135 132 134 131 125 120 107 104 101 97
207 219 235 229 228 225 253 243 239 226 214 223 234 228 234 232 227 202 207 217 191 209 263 246 229 227 247 278 211 207 215 203 198 209 214 218 211 210 188 169 170 174 185 191 197 199 187 202 195 195 203 202 211 202 202 197 198 203 209 206 198 196 192 194 182 170 169 162 163 161 162 158 157 153 148 151 144 138 141 134 128 126 117 109 102
220 233 229 266 266 234 245 236 230 226 216 217 235 234 249 257 270 252 181 196 205 188 218 248 236 226 230 243 272 218 210 237 209 205 200 212 234 223 215 223 176 169 178 181 195 200 203 192 200 198 206 202 209 202 207 197 198 202 205 208 209 200 203 201 207 192 175 171 174 171 168 168 167 164 161 157 157 153 146 146 139 138 132 126 122
230 223 237 254 236 267 269 322 278 240 246 235 237 234 230 279 254 244 230 207 220 196 203 219 241 250 232 244 255 286 270 234 249 232 216 211 205 217 220 217 217 194 173 179 183 194 195 199 205 202 208 206 203 207 204 208 197 200 207 208 207 205 207 208 210 206 190 177 181 180 178 179 176 173 169 166 166 165 160 158 158 147 145 139 135
221 224 202 243 244 228 113 255 327 323 286 299 265 249 252 253 269 260 272 239 222 208 202 213 211 232 222 222 235 244 252 262 244 239 240 220 226 210 214 217 212 207 193 184 179 186 190 198 200 206 207 207 206 203 204 214 207 204 210 202 200 205 204 206 209 211 200 191 191 188 186 190 184 180 178 173 173 173 173 169 163 162 155 153 143
256 247 268 266 263 264 198 140 246 238 226 255 236 236 238 258 260 268 247 252 271 243 201 211 227 194 238 267 233 225 230 245 260 270 255 246 232 238 221 212 215 204 199 209 211 183 183 193 196 198 206 209 210 203 204 208 213 209 212 207 201 195 208 206 207 213 203 203 200 196 194 192 188 190 185 184 180 179 177 176 172 171 166 160 157
228 246 247 251 273 271 187 192 154 292 304 257 238 253 246 239 268 299 298 270 256 256 213 206 213 218 215 245 256 221 216 257 270 254 253 255 255 222 235 228 215 213 198 212 219 214 175 182 193 201 204 206 209 210 208 210 211 212 210 212 213 196 200 203 206 207 216 212 209 205 200 192 186 193 194 192 190 185 184 180 180 176 172 169 165
336 317 317 296 290 249 284 273 140 194 229 332 294 263 241 242 242 260 280 238 249 253 205 194 269 39 147 283 308 322 289 248 242 256 258 257 259 254 237 231 217 214 217 214 220 215 204 176 185 197 205 194 204 209 211 212 220 216 219 209 215 202 197 200 205 206 208 214 212 208 199 189 188 193 196 196 197 194 191 187 185 182 178 177 174
333 326 297 337 300 316 334 338 292 170 189 191 220 230 216 263 257 236 256 278 259 307 317 218 205 209 297 272 272 284 292 291 289 310 281 256 241 240 245 254 236 217 225 222 222 226 215 215 204 208 209 195 195 203 205 210 212 225 230 225 217 215 197 201 208 212 201 208 207 208 204 191 192 195 197 198 198 199 199 193 192 187 184 183 181
336 333 337 273 323 269 295 21 337 81 128 187 185 170 62 279 267 247 228 242 260 241 243 275 240 230 193 245 264 241 254 307 299 279 281 284 259 242 251 251 256 251 228 218 227 223 227 213 217 221 212 213 178 194 204 207 211 216 225 233 231 228 210 201 207 211 210 202 205 203 197 196 197 200 200 201 201 200 202 199 199 194 191 190 187
1 212 258 270 257 345 357 344 40 63 71 48 119 175 220 219 213 237 248 248 269 245 219 216 250 254 201 35 266 293 178 283 251 251 269 302 327 288 247 232 244 250 241 238 235 229 231 226 220 217 220 239 203 183 195 199 208 205 214 222 230 230 230 219 216 205 208 199 202 201 193 200 197 202 201 202 202 205 204 203 203 201 199 197 195
193 204 30 51 353 343 0 2 11 13 8 86 89 81 86 89 239 230 228 232 236 243 244 234 189 192 239 234 179 165 313 249 270 322 305 32 358 356 344 308 279 250 238 244 234 233 240 255 250 228 228 232 243 217 197 195 199 198 204 213 220 223 230 230 229 224 203 204 198 204 191 196 195 198 202 202 202 208 207 208 207 206 204 202 201
38 34 75 73 6 1 16 343 8 360 340 3 24 33 95 128 120 101 165 241 282 250 112 185 239 246 267 189 176 212 252 49 48 236 297 310 248 215 205 293 344 343 306 262 266 262 252 255 262 263 256 242 242 242 252 221 197 199 200 207 211 216 221 229 230 227 224 207 203 207 193 193 193 195 204 207 207 208 207 207 207 212 208 206 206
65 54 34 48 79 23 338 329 58 352 4 15 27 93 30 3 35 104 130 178 164 30 82 53 85 44 42 331 353 321 204 64 84 204 27 7 343 308 310 225 339 337 341 341 337 337 331 289 276 284 263 258 249 250 246 245 241 205 204 202 207 210 214 220 227 229 227 226 212 206 201 196 194 197 201 207 208 209 209 210 209 210 211 210 209
60 68 68 39 30 35 20 6 32 33 36 16 44 6 33 22 345 17 359 142 99 118 130 199 167 168 195 91 55 12 25 119 261 20 306 104 102 339 353 327 328 351 328 330 356 5 344 345 321 299 292 267 254 255 253 250 248 246 211 175 192 203 208 213 219 225 227 226 226 209 207 206 198 196 198 201 207 209 211 211 211 209 212 213 210
95 87 104 70 65 54 45 34 15 48 44 70 55 42 41 68 30 13 31 11 346 55 124 93 352 84 135 139 150 208 320 340 39 359 338 334 340 55 36 352 343 317 297 285 159 156 321 298 279 294 330 297 297 281 276 287 276 248 222 166 189 197 204 209 214 220 228 230 226 223 212 212 209 199 197 197 205 206 210 211 213 211 213 213 213
84 89 72 90 91 75 48 39 19 11 45 83 62 55 49 36 40 46 30 32 24 18 330 51 11 31 337 35 163 146 152 352 67 111 112 305 311 342 351 30 280 288 307 318 326 299 279 287 305 311 234 271 284 278 270 245 274 329 338 221 181 190 199 207 210 214 220 227 233 229 225 222 221 213 203 196 201 206 210 211 211 213 213 214 215
128 112 115 112 99 98 76 56 33 27 30 50 60 70 49 56 49 42 34 61 45 25 24 25 24 31 351 5 313 6 201 172 179 200 188 183 246 290 258 235 299 269 208 270 273 288 284 279 281 289 288 286 286 287 288 289 291 240 59 292 212 187 191 199 206 214 218 224 225 232 233 231 230 223 214 202 207 211 210 213 214 212 212 215 217
133 137 125 116 113 89 79 66 52 34 42 43 41 53 69 74 72 54 49 37 51 55 48 31 20 46 355 9 11 14 3 346 348 10 353 317 301 239 214 200 196 223 210 220 252 255 240 257 274 259 255 261 268 268 263 257 270 117 272 9 176 206 196 195 203 210 219 224 230 233 235 236 235 230 219 212 212 214 214 214 216 217 216 214 216
151 147 148 132 134 112 102 91 66 55 44 40 46 79 74 71 53 54 67 63 58 52 48 54 21 72 31 15 24 19 5 346 24 358 333 326 325 311 301 308 266 248 183 186 212 226 228 224 228 233 238 245 251 257 262 264 254 155 166 193 176 180 195 207 210 211 215 220 225 233 237 237 237 237 228 218 214 214 217 216 217 217 218 216 216
169 163 158 160 151 145 160 129 109 59 37 50 51 37 53 57 58 70 54 49 49 36 47 35 27 16 42 22 349 29 74 49 356 341 329 304 283 293 300 303 294 301 297 229 215 214 224 233 243 242 220 219 243 244 237 247 291 95 340 173 160 183 192 202 208 214 218 221 226 232 238 242 242 237 236 230 221 217 215 215 213 213 218 217 214
172 181 160 182 172 160 165 119 103 102 89 73 54 54 33 94 98 74 79 72 67 70 68 56 42 27 1 34 13 32 27 19 4 289 344 317 309 321 322 309 308 293 285 271 260 262 206 206 220 238 241 226 220 224 207 239 181 82 63 300 184 206 205 209 209 213 216 218 223 230 238 243 248 253 253 247 237 215 215 214 212 208 211 213 211
175 182 160 188 177 169 167 153 154 148 135 132 134 114 345 48 87 72 66 67 61 48 58 39 48 37 24 16 42 50 359 25 346 355 342 16 347 347 331 319 308 287 277 267 268 234 243 249 216 233 223 207 241 308 177 40 105 149 178 198 266 212 206 207 212 207 210 212 216 224 231 235 238 241 250 263 271 267 219 208 208 208 208 209 211
176 177 167 188 182 183 175 177 168 167 169 164 185 161 145 148 107 101 91 82 88 95 104 98 64 37 32 358 341 43 12 18 335 43 352 356 325 214 290 312 317 315 324 314 319 306 354 308 297 233 251 246 230 227 116 163 134 159 190 236 250 238 189 208 208 207 210 212 217 221 224 229 234 235 237 244 252 253 246 226 209 207 207 208 210
180 176 173 190 185 189 190 180 181 180 178 181 191 166 177 201 134 148 144 133 153 99 49 70 89 101 63 11 3 77 54 351 15 357 359 337 325 323 268 280 318 305 311 314 318 332 340 13 329 348 346 338 333 0 325 310 120 161 284 276 289 290 159 202 204 215 217 218 220 221 219 226 230 230 230 235 239 242 241 236 232 215 208 211 210
185 175 182 190 189 191 196 189 183 189 185 190 197 168 202 202 145 187 154 150 156 150 165 132 78 60 44 0 352 44 52 346 20 346 336 344 313 314 318 294 237 269 298 299 301 317 311 316 298 304 343 350 346 342 327 281 86 353 305 297 294 298 143 195 209 220 228 223 223 221 218 220 224 225 224 227 230 232 233 233 230 229 224 215 212
191 180 186 192 190 191 202 194 189 191 190 194 196 182 210 193 175 198 155 195 190 167 157 114 169 161 109 235 294 355 40 336 305 293 305 301 320 313 307 309 303 300 291 284 287 285 304 304 312 317 322 323 317 316 306 296 289 304 291 282 272 252 191 244 212 215 220 225 223 223 222 221 221 219 222 224 227 229 230 230 230 227 221 221 217
198 187 191 194 193 193 199 198 196 195 194 195 194 194 201 198 193 209 174 211 210 184 176 181 174 188 164 203 209 345 25 320 308 319 298 282 272 298 303 299 293 286 284 277 275 284 284 287 295 298 296 298 306 301 298 295 280 245 282 280 278 289 283 275 266 229 224 225 222 221 222 224 222 221 221 221 222 224 225 226 227 225 223 218 216
211 199 199 200 199 197 198 201 201 198 199 196 194 197 198 196 198 214 173 207 215 204 193 176 210 209 211 256 223 194 205 272 300 298 286 286 280 270 270 277 279 278 275 282 281 286 287 285 290 288 292 291 283 283 288 291 295 293 286 281 283 278 274 275 274 263 231 225 221 220 220 219 220 225 227 227 225 222 221 223 225 224 223 222 221
220 216 207 207 206 203 204 203 203 203 202 200 195 196 200 196 196 197 184 205 216 211 194 215 194 202 190 267 280 63 293 307 311 292 302 311 299 282 274 273 281 285 276 285 288 291 292 295 288 294 291 285 281 277 272 274 278 283 283 280 280 275 274 276 276 273 226 215 212 214 218 217 218 220 224 227 231 225 221 222 222 222 223 222 220
223 221 220 218 214 211 208 210 206 207 205 201 196 198 200 200 195 192 195 205 207 206 196 217 208 192 196 209 229 212 227 263 275 280 285 275 280 287 292 293 291 291 290 285 287 284 288 289 293 288 284 285 281 284 282 282 282 281 282 283 281 281 279 271 270 270 213 199 201 206 208 210 214 219 222 227 229 228 223 220 221 223 222 221 220
228 222 224 237 222 220 222 215 213 209 208 204 198 200 204 201 202 197 198 204 203 204 201 208 212 190 201 206 220 228 228 239 256 284 287 279 275 291 296 290 281 277 271 262 256 268 277 283 281 285 294 297 290 289 287 282 279 275 272 274 270 276 280 281 280 281 232 205 205 204 205 210 216 217 221 227 228 229 227 222 221 222 223 223 221
225 223 218 224 232 222 223 223 220 218 213 209 202 199 203 203 204 203 200 204 203 202 203 203 203 198 204 214 239 246 267 271 267 270 285 306 304 300 296 294 288 286 281 278 278 272 275 277 282 282 286 281 279 280 282 284 282 279 279 279 282 281 279 285 290 286 277 185 179 193 200 210 215 218 222 225 227 227 225 224 222 223 224 225 224
231 228 228 217 229 231 223 228 229 225 221 222 216 204 205 201 204 206 205 205 202 201 199 200 192 201 214 219 220 226 241 258 280 296 301 299 299 297 298 301 303 305 299 293 286 279 277 275 277 280 272 277 281 276 277 278 278 279 278 278 280 279 279 276 274 272 281 267 224 206 212 218 219 222 223 225 228 228 226 222 220 220 222 224 225
237 236 233 233 229 233 228 224 225 228 225 222 220 213 210 204 205 204 203 203 200 201 201 194 199 196 195 209 219 225 239 254 274 277 287 293 288 287 286 286 286 285 287 285 284 284 280 280 281 279 280 274 270 276 274 273 273 274 278 280 274 270 264 267 272 281 289 292 293 283 267 250 233 219 221 228 230 232 232 226 222 220 221 222 224
229 231 232 228 224 225 227 230 237 218 231 223 218 213 215 208 200 203 197 200 196 197 196 196 199 197 202 215 221 226 229 243 256 265 305 304 309 301 296 295 293 292 290 289 286 282 279 278 278 282 278 283 279 274 276 272 272 269 265 267 276 282 287 291 291 290 283 284 278 275 264 241 242 235 217 216 221 224 227 228 225 220 220 221 220
284 267 244 235 232 229 234 234 236 225 220 205 210 224 226 211 196 198 194 193 194 192 190 199 198 197 207 210 217 225 113 68 66 24 309 294 290 282 283 286 285 286 283 282 283 280 279 279 280 279 279 276 275 277 274 271 270 281 293 299 290 289 286 280 275 269 271 272 275 278 273 275 270 260 235 215 214 220 228 225 224 219 222 219 217
240 245 240 241 237 237 235 234 232 227 211 222 230 213 213 208 194 185 185 190 194 193 189 194 194 201 209 221 214 193 119 201 227 234 243 246 233 246 268 279 286 289 286 284 281 280 282 282 280 283 284 281 282 282 283 283 286 287 285 281 278 278 277 276 274 269 264 261 264 264 264 261 259 261 263 264 241 196 218 208 220 220 212 215 216
226 228 235 238 238 238 239 251 249 234 231 243 203 165 169 170 185 185 183 189 186 189 188 192 194 202 210 219 238 180 187 208 219 223 230 224 228 234 239 253 267 272 281 279 276 281 283 281 281 281 280 283 284 285 283 284 280 275 276 281 281 281 277 279 280 284 276 283 277 281 282 281 280 276 274 267 259 234 200 217 195 212 207 201 209
238 237 228 230 238 241 238 234 201 196 209 179 142 150 150 179 211 187 175 173 180 184 186 193 202 214 226 235 239 261 260 261 275 241 219 222 227 226 230 234 232 239 239 248 265 273 273 274 275 273 276 275 280 281 282 284 285 283 278 276 275 279 280 276 279 279 288 299 295 290 283 286 288 286 283 275 275 275 263 260 199 196 197 191 197
236 238 236 231 232 238 240 218 211 214 228 143 145 139 139 142 142 154 176 182 175 185 189 195 209 218 233 245 254 257 266 217 217 246 263 245 212 221 226 226 230 231 233 236 241 249 261 266 270 272 271 279 282 282 290 299 309 297 292 280 277 278 277 277 275 276 279 287 286 280 279 279 280 274 266 264 272 273 270 178 160 183 190 186 193
242 238 237 235 236 235 235 228 221 223 202 150 143 144 138 138 146 163 180 171 175 188 190 197 207 220 231 246 254 256 258 262 267 269 276 274 291 256 229 230 236 227 226 232 234 234 237 249 259 266 271 271 272 282 293 305 301 293 293 284 289 286 283 279 282 280 284 294 286 293 282 273 269 268 267 269 267 267 265 258 181 179 180 183 181
253 246 239 236 236 243 242 235 229 224 139 152 146 143 142 140 136 151 154 156 177 187 198 215 219 232 242 251 261 265 267 266 272 338 291 290 293 290 288 289 284 286 277 247 226 227 233 236 248 258 267 268 269 273 284 300 307 310 310 311 310 299 295 297 293 282 279 270 270 271 270 272 268 267 268 270 267 262 260 266 228 191 186 179 174
255 251 245 239 236 234 237 235 234 148 127 147 141 138 138 135 131 150 144 163 189 213 214 218 224 234 239 243 252 256 263 270 75 71 40 323 287 286 288 285 284 282 276 268 269 274 270 268 262 262 266 277 310 305 294 291 296 296 301 301 297 296 292 283 274 278 274 269 255 255 263 266 259 268 273 276 274 270 268 266 179 184 155 152 158
256 253 252 242 240 237 237 237 190 114 132 140 128 127 130 132 141 165 173 183 208 214 223 228 238 244 246 246 252 266 266 280 101 102 105 313 283 286 285 284 283 283 280 282 266 247 241 248 256 267 276 278 272 267 273 272 263 275 288 284 275 280 277 274 272 271 271 272 255 250 262 267 264 266 271 265 264 263 262 265 140 151 145 146 160
259 256 255 250 243 243 240 230 127 129 130 126 125 125 134 139 46 193 191 201 218 229 219 233 250 255 259 193 236 259 271 270 126 145 146 204 276 281 283 286 286 283 282 285 283 275 253 234 237 244 248 250 253 258 263 260 256 250 255 260 266 271 267 267 272 271 275 268 267 268 261 262 270 263 264 263 264 261 256 256 153 145 151 146 133
262 265 258 252 247 255 18 103 111 117 126 123 124 132 130 139 356 216 181 218 234 252 270 277 276 272 275 203 193 226 251 255 159 162 165 230 277 279 280 285 285 284 285 292 291 288 285 286 279 265 249 241 242 246 254 256 248 236 245 256 260 253 258 261 265 273 271 261 257 255 261 268 267 259 258 267 266 265 253 249 193 166 185 168 150